When you browse on this site, cookies collect data to enhance your experience and personalize the content and advertising you see.
Visit our Privacy Policy to learn more. By continuing to use the site, you agree to this use of cookies and data.
  • In Hungary
  • List of Countries
  • For 7 days
  • Water Temperature
  • Weather Map
  • News
  • Weather Widgets
  • user-avatar
    Login

    Hourly Weather Derkachev

    Today, 18 October, Friday

    Time Temperature Precipitation Wind Pressure Humidity
    00:00 +14°C° 0 mm 3 mps 760 mmHg 71%
    01:00 +13°C° 0 mm 3 mps 759 mmHg 74%
    02:00 +13°C° 0 mm 3 mps 759 mmHg 77%
    03:00 +12°C° 0 mm 3 mps 759 mmHg 80%
    04:00 +12°C° 0 mm 3 mps 759 mmHg 82%
    05:00 +11°C° 0 mm 3 mps 759 mmHg 84%
    06:00 +11°C° 0 mm 3 mps 759 mmHg 86%
    07:00 +12°C° 0 mm 3 mps 759 mmHg 82%
    08:00 +12°C° 0 mm 3 mps 759 mmHg 78%
    09:00 +13°C° 0 mm 3 mps 759 mmHg 75%
    10:00 +16°C° 0 mm 3 mps 759 mmHg 69%
    11:00 +17°C° 0 mm 3 mps 759 mmHg 63%
    12:00 +19°C° 0 mm 3 mps 759 mmHg 57%
    13:00 +20°C° 0 mm 2 mps 758 mmHg 55%
    14:00 +20°C° 0 mm 2 mps 758 mmHg 52%
    15:00 +21°C° 0 mm 2 mps 758 mmHg 49%
    16:00 +21°C° 0 mm 1 mps 758 mmHg 53%
    17:00 +20°C° 0 mm 1 mps 758 mmHg 56%
    18:00 +19°C° 0 mm 1 mps 758 mmHg 60%
    19:00 +19°C° 0 mm 1 mps 758 mmHg 62%
    20:00 +17°C° 0 mm 2 mps 758 mmHg 64%
    21:00 +17°C° 0 mm 2 mps 758 mmHg 66%
    22:00 +16°C° 0 mm 2 mps 758 mmHg 67%
    23:00 +16°C° 0 mm 2 mps 758 mmHg 69%

    Tomorrow, 19 October, Saturday

    Time Temperature Precipitation Wind Pressure Humidity
    00:00 +15°C° 0 mm 2 mps 758 mmHg 70%
    01:00 +14°C° 0 mm 3 mps 758 mmHg 70%
    02:00 +13°C° 0 mm 3 mps 758 mmHg 70%
    03:00 +13°C° 0 mm 3 mps 759 mmHg 70%
    04:00 +13°C° 0 mm 3 mps 759 mmHg 70%
    05:00 +12°C° 0 mm 3 mps 759 mmHg 71%
    06:00 +12°C° 0 mm 3 mps 759 mmHg 71%
    07:00 +13°C° 0 mm 3 mps 759 mmHg 67%
    08:00 +14°C° 0 mm 3 mps 760 mmHg 63%
    09:00 +16°C° 0 mm 3 mps 760 mmHg 59%
    10:00 +18°C° 0 mm 3 mps 760 mmHg 54%
    11:00 +19°C° 0 mm 3 mps 760 mmHg 48%
    12:00 +21°C° 0 mm 3 mps 760 mmHg 43%
    13:00 +21°C° 0 mm 3 mps 760 mmHg 41%
    14:00 +22°C° 0 mm 3 mps 760 mmHg 39%
    15:00 +24°C° 0 mm 3 mps 760 mmHg 37%
    16:00 +21°C° 0 mm 3 mps 760 mmHg 41%
    17:00 +20°C° 0 mm 2 mps 760 mmHg 45%
    18:00 +19°C° 0 mm 2 mps 760 mmHg 48%
    19:00 +18°C° 0 mm 2 mps 760 mmHg 50%
    20:00 +17°C° 0 mm 3 mps 760 mmHg 52%
    21:00 +17°C° 0 mm 3 mps 761 mmHg 54%
    22:00 +16°C° 0 mm 3 mps 761 mmHg 55%
    23:00 +16°C° 0 mm 3 mps 761 mmHg 56%

    Day after tomorrow, 20 October, Sunday

    Time Temperature Precipitation Wind Pressure Humidity
    00:00 +14°C° 0 mm 3 mps 761 mmHg 57%
    01:00 +14°C° 0 mm 3 mps 761 mmHg 59%
    02:00 +13°C° 0 mm 3 mps 761 mmHg 61%
    03:00 +13°C° 0 mm 3 mps 761 mmHg 63%
    04:00 +13°C° 0 mm 3 mps 762 mmHg 64%
    05:00 +12°C° 0 mm 3 mps 762 mmHg 65%
    06:00 +12°C° 0 mm 3 mps 762 mmHg 66%
    07:00 +13°C° 0 mm 3 mps 762 mmHg 63%
    08:00 +14°C° 0 mm 4 mps 762 mmHg 60%
    09:00 +15°C° 0 mm 4 mps 762 mmHg 57%
    10:00 +17°C° 0 mm 4 mps 762 mmHg 52%
    11:00 +19°C° 0 mm 4 mps 762 mmHg 47%
    12:00 +21°C° 0 mm 4 mps 762 mmHg 42%
    13:00 +22°C° 0 mm 4 mps 762 mmHg 41%
    14:00 +22°C° 0 mm 4 mps 762 mmHg 40%
    15:00 +23°C° 0 mm 4 mps 762 mmHg 39%
    16:00 +21°C° 0 mm 4 mps 762 mmHg 42%
    17:00 +20°C° 0 mm 3 mps 762 mmHg 46%
    18:00 +19°C° 0 mm 3 mps 762 mmHg 50%
    19:00 +18°C° 0 mm 3 mps 762 mmHg 51%
    20:00 +18°C° 0 mm 4 mps 762 mmHg 53%
    21:00 +17°C° 0 mm 4 mps 763 mmHg 54%
    22:00 +15°C° 0 mm 4 mps 763 mmHg 57%
    23:00 +16°C° 0 mm 3 mps 763 mmHg 59%

    21 October, Monday

    Time Temperature Precipitation Wind Pressure Humidity
    00:00 +14°C° 0 mm 3 mps 763 mmHg 61%
    01:00 +14°C° 0 mm 3 mps 763 mmHg 63%
    02:00 +13°C° 0 mm 3 mps 763 mmHg 64%
    03:00 +13°C° 0 mm 3 mps 763 mmHg 66%
    04:00 +13°C° 0 mm 3 mps 763 mmHg 67%
    05:00 +12°C° 0 mm 3 mps 763 mmHg 68%
    06:00 +12°C° 0 mm 3 mps 763 mmHg 70%
    07:00 +13°C° 0 mm 4 mps 763 mmHg 66%
    08:00 +14°C° 0 mm 4 mps 763 mmHg 62%
    09:00 +14°C° 0 mm 4 mps 763 mmHg 58%
    10:00 +17°C° 0 mm 4 mps 763 mmHg 53%
    11:00 +19°C° 0 mm 4 mps 763 mmHg 47%
    12:00 +21°C° 0 mm 5 mps 763 mmHg 42%
    13:00 +21°C° 0 mm 4 mps 763 mmHg 40%
    14:00 +21°C° 0 mm 4 mps 763 mmHg 39%
    15:00 +22°C° 0 mm 4 mps 763 mmHg 37%
    16:00 +21°C° 0 mm 4 mps 763 mmHg 41%
    17:00 +19°C° 0 mm 3 mps 762 mmHg 45%
    18:00 +18°C° 0 mm 3 mps 762 mmHg 48%
    19:00 +17°C° 0 mm 3 mps 762 mmHg 51%
    20:00 +17°C° 0 mm 3 mps 762 mmHg 54%
    21:00 +16°C° 0 mm 3 mps 762 mmHg 57%
    22:00 +14°C° 0 mm 3 mps 762 mmHg 59%
    23:00 +14°C° 0 mm 3 mps 762 mmHg 62%

    22 October, Tuesday

    Time Temperature Precipitation Wind Pressure Humidity
    00:00 +13°C° 0 mm 3 mps 762 mmHg 65%
    01:00 +13°C° 0 mm 3 mps 762 mmHg 67%
    02:00 +13°C° 0 mm 2 mps 762 mmHg 69%
    03:00 +13°C° 0 mm 2 mps 762 mmHg 72%
    04:00 +13°C° 0 mm 2 mps 762 mmHg 73%
    05:00 +12°C° 0 mm 2 mps 762 mmHg 74%
    06:00 +12°C° 0 mm 2 mps 762 mmHg 76%
    07:00 +13°C° 0 mm 2 mps 762 mmHg 72%
    08:00 +14°C° 0 mm 2 mps 761 mmHg 68%
    09:00 +15°C° 0 mm 2 mps 761 mmHg 64%
    10:00 +16°C° 0 mm 2 mps 761 mmHg 57%
    11:00 +18°C° 0 mm 2 mps 761 mmHg 51%
    12:00 +19°C° 0 mm 2 mps 761 mmHg 44%
    13:00 +20°C° 0 mm 2 mps 761 mmHg 42%
    14:00 +20°C° 0 mm 2 mps 760 mmHg 39%
    15:00 +22°C° 0 mm 1 mps 760 mmHg 37%
    16:00 +21°C° 0 mm 1 mps 760 mmHg 40%
    17:00 +20°C° 0 mm 1 mps 760 mmHg 43%
    18:00 +19°C° 0 mm 1 mps 759 mmHg 46%
    19:00 +18°C° 0 mm 1 mps 759 mmHg 48%
    20:00 +18°C° 0 mm 1 mps 759 mmHg 49%
    21:00 +16°C° 0 mm 1 mps 759 mmHg 51%
    22:00 +16°C° 0 mm 1 mps 759 mmHg 52%
    23:00 +15°C° 0 mm 1 mps 760 mmHg 54%

    23 October, Wednesday

    Time Temperature Precipitation Wind Pressure Humidity
    00:00 +15°C° 0 mm 1 mps 760 mmHg 55%
    01:00 +15°C° 0 mm 1 mps 760 mmHg 56%
    02:00 +15°C° 0 mm 1 mps 760 mmHg 57%
    03:00 +14°C° 0 mm 1 mps 760 mmHg 58%
    04:00 +14°C° 0 mm 2 mps 760 mmHg 61%
    05:00 +14°C° 0 mm 2 mps 760 mmHg 63%
    06:00 +13°C° 0 mm 3 mps 761 mmHg 66%
    07:00 +13°C° 0 mm 3 mps 761 mmHg 67%
    08:00 +14°C° 0 mm 4 mps 762 mmHg 69%
    09:00 +14°C° 0 mm 5 mps 762 mmHg 71%
    10:00 +16°C° 0 mm 5 mps 762 mmHg 66%
    11:00 +17°C° 0 mm 5 mps 762 mmHg 62%
    12:00 +19°C° 0 mm 5 mps 763 mmHg 58%
    13:00 +19°C° 0 mm 4 mps 763 mmHg 57%
    14:00 +20°C° 0 mm 4 mps 762 mmHg 56%
    15:00 +20°C° 0 mm 4 mps 762 mmHg 55%
    16:00 +19°C° 0 mm 4 mps 763 mmHg 58%
    17:00 +18°C° 0 mm 4 mps 763 mmHg 60%
    18:00 +17°C° 0 mm 4 mps 763 mmHg 62%
    19:00 +15°C° 0 mm 4 mps 763 mmHg 59%
    20:00 +14°C° 0 mm 4 mps 764 mmHg 57%
    21:00 +14°C° 0 mm 5 mps 764 mmHg 54%
    22:00 +13°C° 0 mm 5 mps 764 mmHg 55%
    23:00 +12°C° 0 mm 4 mps 764 mmHg 55%
    Show more